[[{"header":{"parameterUnit":"m.s-1","parameterCategory":1,"la1":30.2991,"la2":30.254,"lo1":-89.0895,"lo2":-89.0444,"dy":0.0017,"dx":0.0017,"nx":28,"ny":28,"refTime":"2024-03-08T03:00:00:Z","depth":0,"parameterNumber":2,"parameterNumberName":"U-component_of_WINDS"},"data":[0,0,0,0,0,0,0,0,0,0,0,0,0,0,0,0,0,0,0,0,0,0,0,0,0,0,0,0,0,0,0,0,0,0,0,0,0,0,0,0,0,0,0,0,0,0,0,0,0,0,0,0,0,0,0,0,0,0,2.762,2.7621,0,2.7656,2.7656,2.7657,2.7635,2.7634,2.7633,2.7632,2.767,2.7672,2.7674,0,0,0,0,0,0,0,0,0,0,0,0,0,2.7537,2.7538,2.762,2.7621,2.7621,2.7656,2.7657,2.7657,2.7635,2.7634,2.7632,2.7631,2.7669,2.7672,2.7674,0,0,0,0,0,0,0,0,0,0,0,0,0,2.7573,2.7539,2.762,2.7614,2.7614,2.7656,2.7657,2.7657,2.7635,2.7634,2.7632,2.7631,2.7669,2.7672,2.7674,2.7724,0,0,2.7684,2.7685,0,0,0,0,0,0,0,0,2.7571,2.7576,2.7615,2.7615,2.7615,2.7639,2.7641,2.768,2.7636,2.7627,2.7632,2.763,2.7661,2.7665,2.7675,2.7726,2.7728,2.7684,2.7686,2.7687,2.7688,0,0,0,0,0,0,0,2.7568,2.7574,2.7634,2.7615,2.7615,2.7611,2.7615,2.7648,2.7653,2.7628,2.7626,2.7631,2.7661,2.7672,2.7676,2.7728,2.7684,2.7686,2.7688,2.7689,2.7827,2.7829,0,0,0,0,0,0,2.7566,2.7572,2.7633,2.7635,2.7588,2.7614,2.7618,2.7633,2.7652,2.7654,2.7632,2.763,2.7668,2.7672,2.7677,2.7739,2.7687,2.769,2.7691,2.7825,2.7827,2.7829,0,0,0,0,0,0,2.7564,2.7571,2.7632,2.7604,2.7611,2.7617,2.7634,2.7635,2.7646,2.7655,2.7656,2.7643,2.7667,2.7673,2.7714,2.774,2.7691,2.7694,2.7823,2.7826,2.7828,2.7863,0,0,0,0,0,0,2.7562,2.7571,2.7589,2.7604,2.7612,2.7667,2.7636,2.7636,2.7651,2.7648,2.7665,2.7667,2.7666,2.7709,2.7717,2.7743,2.7696,2.7821,2.7824,2.7827,2.7859,2.7867,2.7873,0,0,0,0,0,2.7559,2.7597,2.759,2.7597,2.7635,2.7668,2.7673,2.7671,2.7653,2.7672,2.7679,2.7666,2.7736,2.7714,2.7722,2.775,2.7819,2.7823,2.7827,2.7856,2.7865,2.7872,0,0,0,0,0,0,2.7584,2.7598,2.7591,2.7634,2.765,2.7664,2.7688,2.7679,2.7701,2.7697,2.7694,2.7699,2.7742,2.775,2.7724,2.7801,2.7775,2.7781,2.7794,2.7803,2.7809,2.7807,2.7699,0,0,0,0,0,2.7594,2.7619,2.7631,2.7668,2.7677,2.7681,2.7696,2.7693,2.7709,2.7716,2.7726,2.7743,2.7769,2.7786,2.781,2.7861,2.7866,2.7884,2.7891,2.7896,2.7902,2.7932,2.7942,2.7843,2.7843,2.7843,0,0,2.7616,2.7627,2.7643,2.7674,2.7686,2.7714,2.7687,2.7716,2.7738,2.7721,2.776,2.7768,2.7788,2.7834,2.7855,2.7842,2.793,2.7902,2.7906,2.7908,2.7938,2.7947,2.7955,2.7846,2.7845,2.7845,0,0,2.7671,2.7681,2.7715,2.7728,2.7747,2.775,2.7758,2.7774,2.7779,2.7819,2.7808,2.7834,2.7878,2.7893,2.7907,2.7972,2.7962,2.798,2.8014,2.8044,2.8052,2.8059,2.8084,2.8093,2.7985,2.7985,2.7985,0,2.7696,2.7736,2.7733,2.7764,2.778,2.7766,2.7802,2.7815,2.7841,2.7853,2.7838,2.7895,2.7907,2.7959,2.7975,2.7986,2.7997,2.7978,2.8051,2.8058,2.8064,2.8089,2.8098,2.7987,2.7987,2.7987,2.7987,0,2.7768,2.7796,2.7821,2.7848,2.7865,2.7899,2.7902,2.7921,2.7918,2.7924,2.7966,2.7981,2.8009,2.8021,2.8017,2.8074,2.8066,2.8051,2.8024,2.8076,2.8099,2.8108,2.799,2.799,2.7989,2.7988,0,0,2.7837,2.7863,2.7873,2.7886,2.7908,2.793,2.7964,2.7993,2.801,2.8029,2.806,2.8099,2.8087,2.8103,2.8101,2.8127,2.8181,2.811,2.811,2.8124,2.8247,2.8259,2.827,2.8175,2.8177,2.8178,2.8247,0,2.7894,2.7953,2.7953,2.8008,2.8036,2.8026,2.8056,2.8074,2.8081,2.8107,2.8115,2.8144,2.8124,2.8134,2.8159,2.8169,2.8206,2.8164,2.8205,2.8207,2.8202,2.8281,2.8293,2.8357,2.8255,2.8257,2.8258,0,2.7968,2.7992,2.805,2.807,2.8082,2.8109,2.8137,2.8161,2.8182,2.8186,2.8205,2.8201,2.8238,2.821,2.8263,2.8235,2.8252,2.826,2.8262,2.8267,2.8236,2.829,2.8377,2.8387,2.8271,2.827,2.8269,0,2.8016,2.8062,2.8103,2.8114,2.8139,2.8159,2.817,2.819,2.8208,2.8233,2.8245,2.8274,2.829,2.8313,2.8318,2.8297,2.8372,2.8344,2.8378,2.8378,2.8394,2.8394,2.8487,2.8403,2.8403,2.8403,2.8403,0,2.8081,2.8118,2.8125,2.8151,2.8193,2.8193,2.8235,2.8245,2.8263,2.8292,2.8285,2.8313,2.8316,2.8346,2.835,2.8395,2.8401,2.8407,2.8408,2.8408,2.8408,2.842,2.8416,2.8406,2.8405,2.8404,2.8404,0,2.8141,2.8147,2.8192,2.8213,2.8219,2.8249,2.8267,2.8293,2.83,2.8338,2.8346,2.8358,2.8393,2.84,2.844,2.8443,2.8498,2.8493,2.849,2.849,2.8525,2.8522,2.8631,2.8646,2.8551,2.8551,2.8552,0,2.8182,2.8211,2.8235,2.8254,2.8266,2.8297,2.8316,2.8319,2.8339,2.8367,2.8391,2.8424,2.8452,2.8508,2.8521,2.8553,2.8551,2.8587,2.8555,2.8556,2.8554,2.8553,2.8557,2.8593,2.8594,2.8594,2.8595,0,2.8256,2.8259,2.8286,2.8316,2.8339,2.8363,2.8385,2.8401,2.8408,2.8431,2.8467,2.8488,2.8531,2.8566,2.8599,2.8612,2.8606,2.8605,2.8615,2.8616,2.8615,2.8618,2.8509,2.8602,2.8602,2.8601,2.8601,2.86,2.831,2.8336,2.8358,2.8389,2.8407,2.8429,2.8455,2.8466,2.8496,2.8531,2.8531,2.8571,2.8595,2.8638,2.8654,2.8686,2.8675,2.8689,2.8693,2.8697,2.8701,2.8609,2.8692,2.8692,2.8692,2.8692,2.8691,0,2.8385,2.8399,2.8429,2.8461,2.8487,2.8478,2.8504,2.8526,2.8561,2.8584,2.8612,2.8654,2.8689,2.8706,2.8741,2.8764,2.8762,2.8773,2.8772,2.8776,2.8707,2.8696,2.8774,2.8774,2.8774,2.8774,2.8774,2.8774,2.8427,2.8472,2.8477,2.8531,2.8546,2.8584,2.86,2.8621,2.864,2.8688,2.8716,2.8727,2.8749,2.8786,2.8818,2.8823,2.8837,2.8849,2.8853,2.8789,2.878,2.8772,2.8762,2.8852,2.8852,2.8919,2.8919,2.892]},{"header":{"parameterUnit":"m.s-1","parameterCategory":1,"la1":30.2991,"la2":30.254,"lo1":-89.0895,"lo2":-89.0444,"dy":0.0017,"dx":0.0017,"nx":28,"ny":28,"refTime":"2024-03-08T03:00:00:Z","depth":0,"parameterNumber":3,"parameterNumberName":"V-component_of_WINDS"},"data":[0,0,0,0,0,0,0,0,0,0,0,0,0,0,0,0,0,0,0,0,0,0,0,0,0,0,0,0,0,0,0,0,0,0,0,0,0,0,0,0,0,0,0,0,0,0,0,0,0,0,0,0,0,0,0,0,0,0,-3.7688,-3.7689,0,-3.7741,-3.7741,-3.7742,-3.7769,-3.7769,-3.7769,-3.7769,-3.7821,-3.7822,-3.7824,0,0,0,0,0,0,0,0,0,0,0,0,0,-3.7612,-3.7614,-3.7688,-3.7689,-3.769,-3.7741,-3.7741,-3.7742,-3.7769,-3.7769,-3.7769,-3.7769,-3.7821,-3.7822,-3.7824,0,0,0,0,0,0,0,0,0,0,0,0,0,-3.7653,-3.7614,-3.7688,-3.7709,-3.7712,-3.774,-3.7741,-3.7742,-3.7769,-3.7769,-3.7769,-3.7769,-3.782,-3.7822,-3.7824,-3.7835,0,0,-3.783,-3.7831,0,0,0,0,0,0,0,0,-3.7651,-3.7656,-3.7706,-3.7708,-3.7711,-3.7749,-3.7734,-3.7773,-3.7769,-3.7747,-3.7769,-3.7769,-3.7797,-3.7801,-3.781,-3.7838,-3.784,-3.783,-3.7832,-3.7832,-3.7833,0,0,0,0,0,0,0,-3.7648,-3.7654,-3.7709,-3.7706,-3.7709,-3.7716,-3.7722,-3.7741,-3.7771,-3.7749,-3.7751,-3.7757,-3.7798,-3.7808,-3.7812,-3.7841,-3.783,-3.7832,-3.7833,-3.7834,-3.7882,-3.7883,0,0,0,0,0,0,-3.7642,-3.7651,-3.7707,-3.7711,-3.768,-3.7718,-3.7724,-3.7736,-3.7771,-3.7776,-3.7757,-3.7758,-3.7805,-3.7809,-3.7814,-3.7831,-3.7832,-3.7834,-3.7835,-3.7882,-3.7882,-3.7883,0,0,0,0,0,0,-3.764,-3.7646,-3.7705,-3.7682,-3.769,-3.7719,-3.7732,-3.7737,-3.7747,-3.7777,-3.7782,-3.7762,-3.7805,-3.7811,-3.783,-3.7833,-3.7835,-3.7837,-3.7882,-3.7882,-3.7883,-3.7863,0,0,0,0,0,0,-3.7638,-3.7646,-3.765,-3.7681,-3.7691,-3.7721,-3.7732,-3.7738,-3.7751,-3.7753,-3.7783,-3.7788,-3.7806,-3.7827,-3.7832,-3.7835,-3.7839,-3.7882,-3.7882,-3.7882,-3.7864,-3.7863,-3.7862,0,0,0,0,0,-3.7635,-3.7641,-3.765,-3.7656,-3.7696,-3.7721,-3.7726,-3.7747,-3.7751,-3.7756,-3.7775,-3.7787,-3.7832,-3.7829,-3.7835,-3.7839,-3.7882,-3.7882,-3.7882,-3.7864,-3.7863,-3.7862,0,0,0,0,0,0,-3.7607,-3.7646,-3.7655,-3.7672,-3.7693,-3.7725,-3.7732,-3.7744,-3.7764,-3.7765,-3.779,-3.7796,-3.7814,-3.7828,-3.7824,-3.7853,-3.7858,-3.786,-3.7842,-3.7841,-3.784,-3.7836,-3.784,0,0,0,0,0,-3.7604,-3.762,-3.7653,-3.7664,-3.7675,-3.7701,-3.7713,-3.7727,-3.775,-3.7758,-3.7779,-3.78,-3.7819,-3.7831,-3.785,-3.7866,-3.7874,-3.7872,-3.7871,-3.787,-3.7871,-3.7883,-3.7883,-3.7883,-3.7883,-3.7883,0,0,-3.7595,-3.7618,-3.7627,-3.766,-3.7678,-3.7695,-3.7708,-3.7725,-3.7739,-3.7761,-3.7781,-3.7797,-3.7823,-3.7841,-3.785,-3.7854,-3.7873,-3.787,-3.7869,-3.7871,-3.7883,-3.7883,-3.7883,-3.7883,-3.7883,-3.7883,0,0,-3.7589,-3.7608,-3.7621,-3.7639,-3.7667,-3.7685,-3.7688,-3.7719,-3.7731,-3.7752,-3.777,-3.7786,-3.7818,-3.7836,-3.785,-3.7854,-3.7866,-3.786,-3.7854,-3.7865,-3.7865,-3.7865,-3.7868,-3.7868,-3.786,-3.786,-3.786,0,-3.7575,-3.7602,-3.7625,-3.7642,-3.7657,-3.768,-3.7694,-3.771,-3.7742,-3.7752,-3.7756,-3.7798,-3.7817,-3.7841,-3.7842,-3.7852,-3.7857,-3.7856,-3.7863,-3.7863,-3.7864,-3.7867,-3.7867,-3.7859,-3.7859,-3.786,-3.786,0,-3.7584,-3.7602,-3.7609,-3.7642,-3.7657,-3.7672,-3.7699,-3.7712,-3.7726,-3.7744,-3.7766,-3.779,-3.7815,-3.7822,-3.7835,-3.7849,-3.785,-3.7858,-3.7864,-3.7863,-3.7866,-3.7867,-3.7858,-3.7858,-3.7859,-3.7859,0,0,-3.7559,-3.7607,-3.7609,-3.7625,-3.7659,-3.7674,-3.7691,-3.7717,-3.7728,-3.775,-3.7766,-3.7794,-3.7803,-3.7818,-3.7833,-3.7843,-3.7847,-3.785,-3.7851,-3.785,-3.7865,-3.7859,-3.786,-3.7856,-3.7856,-3.7856,-3.7863,0,-3.7558,-3.759,-3.7614,-3.7637,-3.7655,-3.7679,-3.7694,-3.7717,-3.7735,-3.7753,-3.7773,-3.7793,-3.7803,-3.7812,-3.7823,-3.7844,-3.7851,-3.7844,-3.7871,-3.7871,-3.7863,-3.7861,-3.7854,-3.7859,-3.7865,-3.7865,-3.7865,0,-3.756,-3.7584,-3.7609,-3.7644,-3.7652,-3.7665,-3.7692,-3.771,-3.7737,-3.7749,-3.7768,-3.7785,-3.7805,-3.781,-3.7839,-3.7834,-3.7847,-3.7859,-3.786,-3.7863,-3.7868,-3.7864,-3.7862,-3.7862,-3.7867,-3.7867,-3.7867,0,-3.7541,-3.7579,-3.76,-3.7612,-3.7653,-3.7662,-3.7679,-3.7706,-3.7721,-3.7745,-3.7756,-3.7781,-3.7795,-3.7814,-3.7838,-3.784,-3.7865,-3.7872,-3.7877,-3.7876,-3.788,-3.7879,-3.7879,-3.7888,-3.7888,-3.7888,-3.7888,0,-3.7537,-3.7552,-3.7592,-3.7604,-3.7622,-3.765,-3.7667,-3.7686,-3.7711,-3.7728,-3.775,-3.7766,-3.7797,-3.7816,-3.7835,-3.7857,-3.7863,-3.7874,-3.7879,-3.7872,-3.7871,-3.788,-3.7881,-3.7888,-3.7888,-3.7888,-3.7888,0,-3.7518,-3.7545,-3.757,-3.7607,-3.7617,-3.7629,-3.7661,-3.7674,-3.7695,-3.7717,-3.7724,-3.7756,-3.7781,-3.7807,-3.784,-3.7853,-3.7874,-3.7881,-3.7865,-3.7868,-3.7871,-3.7871,-3.7877,-3.788,-3.7887,-3.7887,-3.7886,0,-3.7514,-3.7526,-3.7566,-3.7579,-3.7597,-3.7618,-3.7634,-3.7663,-3.7679,-3.7712,-3.7722,-3.7749,-3.7772,-3.7811,-3.7837,-3.7863,-3.7871,-3.7871,-3.7875,-3.7868,-3.7872,-3.7871,-3.7873,-3.787,-3.787,-3.7869,-3.7869,0,-3.7503,-3.7517,-3.754,-3.7568,-3.7587,-3.7611,-3.7635,-3.7645,-3.7678,-3.7695,-3.7722,-3.774,-3.7775,-3.7802,-3.7832,-3.785,-3.7866,-3.7869,-3.7871,-3.7864,-3.7855,-3.7861,-3.7862,-3.7868,-3.7868,-3.7868,-3.7868,-3.7868,-3.7492,-3.7505,-3.7536,-3.7561,-3.7583,-3.7606,-3.7621,-3.7645,-3.7667,-3.7699,-3.7715,-3.7741,-3.7771,-3.7813,-3.7831,-3.7853,-3.7857,-3.786,-3.7861,-3.7862,-3.7861,-3.7852,-3.7858,-3.7858,-3.7858,-3.7858,-3.7858,0,-3.7483,-3.7505,-3.7528,-3.7563,-3.7583,-3.7598,-3.7626,-3.7642,-3.7665,-3.7692,-3.7715,-3.7746,-3.7773,-3.7803,-3.7832,-3.7843,-3.7852,-3.785,-3.7849,-3.7854,-3.7855,-3.785,-3.7843,-3.7843,-3.7843,-3.7843,-3.7843,-3.7843,-3.7481,-3.7505,-3.7522,-3.7557,-3.7579,-3.7606,-3.7621,-3.7643,-3.7665,-3.7699,-3.7722,-3.7742,-3.777,-3.7802,-3.7827,-3.7835,-3.7845,-3.7842,-3.7852,-3.7852,-3.7853,-3.7854,-3.785,-3.7844,-3.7844,-3.7849,-3.7849,-3.7849]}]]